Location: Aranbee
(34.0885°N, 118.2342°W)
Time: 02:24:16
(UTC+00:00)

deb Explorer IX - Pass Details

Date: 28 November 2020
Orbit: 536 x 1104 km, 38.8° (Epoch: 25 January)

Event Time Altitude Azimuth Distance (km) Brightness Sun altitude
Rises 01:43:53 0° 262° (W) 3,484 ? -12.4°
Reaches altitude 10° 01:46:40 10° 266° (W) 2,449 ? -12.9°
Maximum altitude 01:52:21 61° 346° (NNW) 836 ? -14.0°
Enters shadow 01:55:26 22° 61° (ENE) 1,470 ? -14.7°
